1515718800.04,19259,9.63,73338.8,-3.87,-6.23,-5.43,0,*5F
1515718801.23,19260,9.63,73336.3,-3.83,-6.13,-5.47,0,*56
1515718802.46,19261,9.63,73338.0,-3.83,-6.19,-5.47,0,*5D
1515718803.66,19262,9.63,73340.8,-3.87,-6.31,-5.51,0,*57
1515718804.88,19263,9.63,73336.3,-3.83,-6.27,-5.39,0,*5B
1515718806.1,19264,9.63,73336.3,-3.83,-6.27,-5.47,0,*55
1515718807.31,19265,9.63,73338.3,-3.83,-6.31,-5.55,0,*50
1515718808.51,19266,9.63,73336.3,-3.83,-6.35,-5.55,0,*57
1515718809.72,19267,9.63,73336.0,-3.83,-6.43,-5.55,0,*57
1515718810.92,19268,9.63,73338.0,-3.87,-6.47,-5.55,0,*58
1515718812.14,19269,9.63,73336.8,-3.87,-6.47,-5.69,0,*56
1515718813.37,19270,9.63,73336.3,-3.83,-6.55,-5.65,0,*55
1515718814.59,19271,9.63,73336.0,-3.83,-6.69,-5.65,0,*5B
1515718815.81,19272,9.63,73338.5,-3.83,-6.69,-5.69,0,*54
1515718817.03,19273,9.56,73334.5,-3.83,-6.69,-5.69,0,*55
1515718818.25,19274,9.63,73338.5,-3.83,-6.81,-5.69,0,*54
1515718819.48,19275,9.63,73338.8,-3.87,-6.77,-5.69,0,*58
1515718820.7,19276,9.63,73336.5,-3.87,-6.89,-5.73,0,*51
1515718821.98,19277,9.63,73338.3,-3.89,-6.93,-5.89,0,*50
1515718823.23,19278,9.63,73336.8,-3.87,-6.97,-5.81,0,*5D
1515718824.48,19279,9.63,73338.3,-3.87,-6.97,-5.81,0,*5C
1515718825.71,19280,9.63,73334.5,-3.87,-7.15,-5.85,0,*55
1515718826.91,19281,9.63,73338.0,-3.87,-7.11,-5.97,0,*53
1515718828.11,19282,9.63,73336.8,-3.87,-7.23,-5.97,0,*51
1515718829.33,19283,9.63,73338.8,-3.87,-7.23,-5.93,0,*54
1515718830.53,19284,9.63,73336.3,-3.87,-7.23,-5.97,0,*57
1515718831.74,19285,9.63,73338.3,-3.87,-7.27,-5.97,0,*52
1515718832.96,19286,9.63,73334.8,-3.87,-7.35,-6.05,0,*5A
1515718834.18,19287,9.63,73336.8,-3.87,-7.31,-6.09,0,*53
1515718835.39,19288,9.63,73336.0,-3.87,-7.39,-6.05,0,*58
1515718836.61,19289,9.63,73336.0,-3.87,-7.43,-6.09,0,*58
1515718837.83,19290,9.63,73338.3,-3.87,-7.57,-6.09,0,*55
1515718839.11,19291,9.63,73336.3,-3.89,-7.61,-6.19,0,*5E
1515718840.36,19292,9.63,73336.5,-3.87,-7.69,-6.19,0,*5B
1515718841.6,19293,9.63,73338.5,-3.87,-7.69,-6.23,0,*53
1515718842.84,19294,9.63,73336.0,-3.87,-7.69,-6.23,0,*54
1515718844.09,19295,9.63,73338.3,-3.87,-7.69,-6.23,0,*55
1515718845.31,19296,9.63,73338.0,-3.89,-7.83,-6.35,0,*5B
1515718846.55,19297,9.63,73338.8,-3.83,-7.73,-6.31,0,*5B
1515718847.79,19298,9.63,73334.8,-3.83,-7.77,-6.27,0,*57
1515718849.01,19299,9.63,73334.8,-3.87,-7.91,-6.35,0,*59
1515718850.23,19300,9.63,73340.8,-3.87,-7.95,-6.35,0,*5C
1515718851.46,19301,9.63,73336.0,-3.87,-7.95,-6.47,0,*58
1515718852.69,19302,9.63,73338.0,-3.87,-8.07,-6.47,0,*5F
1515718853.94,19303,9.63,73336.0,-3.89,-8.11,-6.51,0,*50
1515718855.2,19304,9.63,73334.0,-3.89,-8.11,-6.51,0,*57
1515718856.4,19305,9.63,73338.8,-3.87,-8.21,-6.47,0,*5C
1515718857.62,19306,9.63,73336.0,-3.87,-8.29,-6.63,0,*51
1515718858.84,19307,9.63,73336.0,-3.89,-8.29,-6.77,0,*5B
1515718860.03,19308,9.63,73336.0,-3.87,-8.33,-6.73,0,*55
1515718861.26,19309,9.63,73334.0,-3.89,-8.41,-6.77,0,*5B
1515718862.49,19310,9.63,73338.3,-3.89,-8.37,-6.69,0,*5D
1515718863.69,19311,9.63,73336.0,-3.87,-8.45,-6.77,0,*58
1515718864.92,19312,9.63,73338.5,-3.89,-8.55,-6.89,0,*55
1515718866.14,19313,9.63,73336.5,-3.87,-8.51,-6.85,0,*52
1515718867.37,19314,9.63,73336.0,-3.89,-8.55,-6.89,0,*53
1515718868.62,19315,9.63,73336.8,-3.89,-8.63,-7.01,0,*56
1515718869.87,19316,9.63,73338.5,-3.89,-8.67,-7.05,0,*55
1515718871.11,19317,9.63,73336.3,-3.89,-8.75,-7.05,0,*57
1515718872.33,19318,9.63,73336.8,-3.87,-8.75,-7.01,0,*52
1515718873.57,19319,9.63,73338.0,-3.89,-8.89,-7.19,0,*57
1515718874.8,19320,9.63,73336.5,-3.87,-8.85,-7.27,0,*52
1515718876.06,19321,9.63,73338.8,-3.89,-8.97,-7.43,0,*5C
1515718877.32,19322,9.63,73334.5,-3.89,-9.05,-7.43,0,*55
1515718878.57,19323,9.63,73338.5,-3.89,-9.11,-7.49,0,*5B
1515718879.86,19324,9.63,73338.0,-3.89,-9.11,-7.57,0,*53
1515718881.15,19325,9.63,73332.8,-3.89,-9.11,-7.61,0,*57
1515718882.41,19326,9.63,73338.0,-3.89,-9.19,-7.61,0,*5C
1515718883.66,19327,9.63,73338.3,-3.87,-9.15,-7.65,0,*5B
1515718884.92,19328,9.63,73336.8,-3.89,-9.23,-7.73,0,*58
1515718886.15,19329,9.63,73338.3,-3.89,-9.23,-7.83,0,*56
1515718887.38,19330,9.63,73338.3,-3.89,-9.19,-7.83,0,*57
1515718888.62,19331,9.63,73334.8,-3.89,-9.19,-7.83,0,*56
1515718889.85,19332,9.63,73338.8,-3.89,-9.31,-7.83,0,*5F
1515718891.08,19333,9.63,73340.0,-3.89,-9.31,-7.87,0,*5A
1515718892.33,19334,9.63,73338.5,-3.89,-9.31,-7.95,0,*5E
1515718893.62,19335,9.56,73334.8,-3.89,-9.37,-8.07,0,*5D
1515718894.9,19336,9.63,73336.0,-3.89,-9.37,-7.99,0,*56
1515718896.13,19337,9.63,73338.5,-3.87,-9.31,-8.07,0,*57
1515718897.35,19338,9.63,73332.3,-3.91,-9.37,-8.17,0,*58
1515718898.6,19339,9.63,73340.0,-3.93,-9.41,-8.29,0,*57
1515718899.82,19340,9.63,73336.5,-3.91,-9.37,-8.29,0,*5A
1515718901.04,19341,9.63,73336.8,-3.91,-9.37,-8.29,0,*5B
1515718902.28,19342,9.63,73338.5,-3.91,-9.37,-8.37,0,*57
1515718903.5,19343,9.63,73338.8,-3.91,-9.37,-8.41,0,*57
1515718904.72,19344,9.63,73336.8,-3.91,-9.45,-8.41,0,*55
1515718905.94,19345,9.63,73338.0,-3.91,-9.37,-8.41,0,*51
1515718907.17,19346,9.63,73336.5,-3.91,-9.37,-8.41,0,*52
1515718908.42,19347,9.63,73338.0,-3.91,-9.37,-8.51,0,*52
1515718909.67,19348,9.63,73336.3,-3.91,-9.37,-8.51,0,*5D
1515718910.92,19349,9.63,73340.5,-3.91,-9.37,-8.51,0,*5C
1515718912.11,19350,9.63,73336.8,-3.91,-9.31,-8.55,0,*56
1515718913.3,19351,9.63,73336.8,-3.91,-9.31,-8.55,0,*57
1515718914.52,19352,9.63,73342.3,-3.93,-9.27,-8.55,0,*51
1515718915.71,19353,9.63,73338.5,-3.91,-9.31,-8.55,0,*55
1515718916.9,19354,9.63,73340.0,-3.91,-9.19,-8.55,0,*58
1515718918.09,19355,9.63,73340.0,-3.91,-9.23,-8.55,0,*50
1515718919.31,19356,9.63,73338.3,-3.93,-9.27,-8.59,0,*59
1515718920.51,19357,9.63,73332.3,-3.91,-9.19,-8.63,0,*5E
1515718921.7,19358,9.63,73338.0,-3.91,-9.19,-8.67,0,*55
1515718922.94,19359,9.63,73336.5,-3.93,-9.23,-8.81,0,*57
1515718924.19,19360,9.63,73340.0,-3.93,-9.27,-8.81,0,*59
1515718925.41,19361,9.63,73340.3,-3.93,-9.23,-8.71,0,*53
1515718926.63,19362,9.63,73338.5,-3.91,-9.37,-8.75,0,*53
1515718927.85,19363,9.63,73334.8,-3.91,-9.31,-8.81,0,*5F
1515718929.05,19364,9.63,73336.3,-3.91,-9.23,-8.89,0,*53
1515718930.25,19365,9.63,73336.5,-3.91,-9.23,-8.89,0,*52
1515718931.47,19366,9.63,73338.3,-3.93,-9.27,-8.93,0,*5C
1515718932.7,19367,9.63,73338.5,-3.93,-9.27,-8.97,0,*59
1515718933.92,19368,9.63,73338.3,-3.93,-9.23,-8.97,0,*52
1515718935.15,19369,9.63,73336.3,-3.93,-9.23,-8.97,0,*53
1515718936.37,19370,9.63,73336.3,-3.93,-9.23,-8.97,0,*5B
1515718937.6,19371,9.63,73334.3,-3.93,-9.23,-8.93,0,*5E
1515718938.8,19372,9.63,73336.3,-3.91,-9.19,-8.89,0,*5D
1515718940.03,19373,9.63,73334.0,-3.95,-9.15,-8.93,0,*5F
1515718941.29,19374,9.63,73336.3,-3.93,-9.15,-8.93,0,*5E
1515718942.52,19375,9.63,73336.3,-3.91,-9.11,-8.89,0,*52
1515718943.78,19376,9.63,73338.3,-3.93,-9.15,-8.93,0,*5C
1515718945.03,19377,9.63,73338.8,-3.93,-9.11,-8.93,0,*59
1515718946.29,19378,9.63,73338.3,-3.93,-9.15,-8.93,0,*52
1515718947.54,19379,9.63,73336.5,-3.93,-9.11,-8.97,0,*53
1515718948.78,19380,9.63,73338.3,-3.93,-9.01,-8.85,0,*57
1515718950.04,19381,9.63,73338.5,-3.93,-9.11,-8.85,0,*57
1515718951.27,19382,9.63,73336.8,-3.91,-9.11,-8.89,0,*5A
1515718952.52,19383,9.63,73336.3,-3.93,-9.11,-8.93,0,*52
1515718953.78,19384,9.63,73340.0,-3.93,-9.11,-8.97,0,*51
1515718955.01,19385,9.63,73338.0,-3.93,-9.01,-8.93,0,*55
1515718956.24,19386,9.63,73340.5,-3.93,-9.01,-8.85,0,*51
1515718957.5,19387,9.63,73336.8,-3.93,-9.11,-8.85,0,*51
1515718958.75,19388,9.63,73336.5,-3.93,-9.11,-8.93,0,*59
1515718959.98,19389,9.63,73336.8,-3.93,-9.01,-8.93,0,*59
1515718961.19,19390,9.63,73338.8,-3.95,-9.01,-8.93,0,*57
1515718962.43,19391,9.63,73336.5,-3.97,-9.05,-8.97,0,*54
1515718963.63,19392,9.63,73338.3,-3.95,-8.97,-8.85,0,*5C
1515718964.84,19393,9.63,73338.5,-3.95,-9.01,-8.85,0,*53
1515718966.04,19394,9.63,73336.5,-3.95,-8.97,-8.85,0,*5A
1515718967.28,19395,9.63,73336.8,-3.95,-9.11,-8.85,0,*54
1515718968.51,19396,9.63,73338.3,-3.95,-9.11,-8.85,0,*57
1515718969.74,19397,9.63,73338.8,-3.95,-9.01,-8.81,0,*53
1515718970.95,19398,9.63,73340.3,-3.95,-8.97,-8.81,0,*52
1515718972.16,19399,9.63,73336.5,-3.95,-9.01,-8.93,0,*5E
1515718973.37,19400,9.63,73342.5,-3.95,-9.01,-8.93,0,*59
1515718974.58,19401,9.63,73338.8,-3.95,-9.01,-8.85,0,*5F
1515718975.83,19402,9.63,73338.5,-3.93,-9.01,-8.81,0,*5E
1515718977.04,19403,9.63,73342.5,-3.95,-8.93,-8.85,0,*57
1515718978.24,19404,9.63,73340.0,-3.95,-8.97,-8.85,0,*54
1515718979.47,19405,9.63,73336.5,-3.95,-9.01,-8.81,0,*5F
1515718980.67,19406,9.63,73338.5,-3.95,-8.97,-8.85,0,*56
1515718981.87,19407,9.63,73340.0,-3.95,-8.97,-8.85,0,*57
1515718983.1,19408,9.63,73336.8,-3.95,-8.93,-8.81,0,*58
1515718984.33,19409,9.63,73338.0,-3.97,-8.97,-8.89,0,*57
1515718985.54,19410,9.63,73336.3,-3.95,-8.93,-8.85,0,*55
1515718986.75,19411,9.63,73342.8,-3.95,-8.93,-8.85,0,*54
1515718987.97,19412,9.63,73342.3,-3.95,-8.93,-8.81,0,*53
1515718989.21,19413,9.63,73338.5,-3.97,-8.97,-8.89,0,*5C
1515718990.42,19414,9.63,73340.0,-3.95,-8.93,-8.85,0,*51
1515718991.62,19415,9.63,73338.0,-3.95,-9.01,-8.97,0,*59
1515718992.82,19416,9.63,73336.3,-3.95,-8.97,-8.93,0,*50
1515718994.03,19417,9.63,73338.0,-3.95,-8.97,-9.01,0,*5B
1515718995.26,19418,9.63,73338.5,-3.97,-8.97,-8.97,0,*58
1515718996.46,19419,9.63,73334.3,-3.95,-8.93,-8.97,0,*5F
1515718997.67,19420,9.63,73340.0,-3.95,-8.93,-8.97,0,*55
1515718998.87,19421,9.63,73336.3,-3.95,-8.93,-8.97,0,*54
1515719000.08,19422,9.63,73340.3,-3.95,-8.93,-8.97,0,*57
1515719001.28,19423,9.63,73338.8,-3.95,-8.97,-9.01,0,*5C
1515719002.51,19424,9.63,73338.3,-3.95,-8.97,-9.11,0,*5A
1515719003.72,19425,9.63,73340.0,-3.95,-8.85,-9.01,0,*59
1515719004.92,19426,9.63,73340.3,-3.95,-8.85,-8.93,0,*50
1515719006.16,19427,9.63,73340.3,-3.97,-8.89,-8.89,0,*54
1515719007.37,19428,9.63,73340.0,-3.95,-8.93,-8.85,0,*5E
1515719008.57,19429,9.63,73340.8,-3.95,-8.97,-8.97,0,*58
1515719009.8,19430,9.63,73336.3,-3.95,-9.01,-9.11,0,*51
1515719011.03,19431,9.63,73338.5,-3.95,-8.97,-9.15,0,*5A
1515719012.27,19432,9.63,73338.5,-3.97,-9.01,-9.05,0,*54
1515719013.48,19433,9.63,73338.5,-3.95,-9.01,-9.01,0,*53
1515719014.71,19434,9.63,73336.3,-3.95,-9.01,-9.11,0,*55
1515719015.94,19435,9.63,73336.5,-3.95,-9.01,-9.11,0,*54
1515719017.17,19436,9.63,73336.3,-3.95,-8.97,-9.11,0,*59
1515719018.43,19437,9.63,73336.8,-3.97,-9.01,-9.15,0,*50
1515719019.66,19438,9.63,73340.0,-3.97,-9.05,-9.05,0,*5A
1515719020.93,19439,9.63,73340.0,-3.97,-9.01,-9.15,0,*5E
1515719022.16,19440,9.63,73336.3,-3.95,-9.01,-9.11,0,*56
1515719023.4,19441,9.63,73342.5,-3.97,-9.01,-9.05,0,*50
1515719024.63,19442,9.63,73342.8,-3.97,-9.05,-9.05,0,*57
1515719025.87,19443,9.63,73342.5,-3.97,-9.01,-8.97,0,*58
1515719027.1,19444,9.63,73340.0,-3.97,-9.01,-8.97,0,*5F
1515719028.34,19445,9.63,73338.3,-3.97,-9.05,-9.01,0,*54
1515719029.58,19446,9.63,73342.3,-3.97,-9.01,-9.01,0,*53
1515719030.82,19447,9.63,73340.8,-3.97,-9.01,-8.97,0,*5C
1515719032.06,19448,9.63,73342.0,-3.97,-9.01,-9.05,0,*59
1515719033.28,19449,9.63,73338.5,-3.95,-8.97,-9.11,0,*51
1515719034.52,19450,9.63,73338.3,-3.97,-9.01,-9.05,0,*50
1515719035.73,19451,9.63,73340.5,-3.95,-8.97,-9.01,0,*59
1515719036.99,19452,9.63,73340.3,-3.97,-9.01,-9.15,0,*53
1515719038.22,19453,9.63,73336.5,-3.97,-9.01,-9.05,0,*53
1515719039.49,19454,9.63,73338.5,-3.97,-9.01,-9.15,0,*55
1515719040.75,19455,9.63,73336.0,-3.97,-9.01,-9.15,0,*54
1515719042.01,19456,9.63,73340.0,-3.97,-9.01,-9.15,0,*57
1515719043.26,19457,9.63,73340.0,-3.97,-8.97,-9.15,0,*58
1515719044.52,19458,9.63,73338.5,-3.97,-8.89,-9.15,0,*58
1515719045.75,19459,9.63,73336.0,-3.97,-8.97,-9.19,0,*5A
1515719047.01,19460,9.63,73340.0,-3.97,-8.85,-9.15,0,*5F
1515719048.25,19461,9.63,73336.0,-3.97,-8.85,-9.05,0,*5F
1515719049.49,19462,9.63,73338.5,-3.97,-8.85,-9.05,0,*5C
1515719050.75,19463,9.63,73336.8,-3.97,-8.89,-9.15,0,*50
1515719051.99,19464,9.63,73340.3,-3.95,-8.81,-9.11,0,*59
1515719053.22,19465,9.63,73340.3,-3.97,-8.75,-9.05,0,*54
1515719054.46,19466,9.63,73336.3,-3.97,-8.71,-9.05,0,*53
1515719055.66,19467,9.63,73342.0,-3.95,-8.67,-8.93,0,*59
1515719056.92,19468,9.63,73340.5,-3.97,-8.51,-8.85,0,*56
1515719058.18,19469,9.63,73340.8,-3.97,-8.51,-8.71,0,*5C
1515719059.37,19470,9.63,73338.0,-3.95,-8.41,-8.67,0,*50
1515719060.56,19471,9.63,73338.8,-3.95,-8.41,-8.59,0,*5C
1515719061.79,19472,9.63,73338.0,-3.97,-8.45,-8.59,0,*59
1515719063.04,19473,9.63,73338.5,-3.97,-8.51,-8.75,0,*53
1515719064.27,19474,9.63,73340.3,-3.97,-8.59,-8.71,0,*58
1515719065.46,19475,9.63,73342.5,-3.95,-8.59,-8.71,0,*5B
1515719066.7,19476,9.63,73336.3,-3.97,-8.63,-8.89,0,*54
1515719067.96,19477,9.63,73342.3,-3.97,-8.51,-8.85,0,*58
1515719069.22,19478,9.63,73338.3,-3.97,-8.51,-8.75,0,*58
1515719070.47,19479,9.63,73342.5,-3.97,-8.51,-8.75,0,*59
1515719071.7,19480,9.63,73338.5,-3.97,-8.71,-8.75,0,*5D
1515719072.94,19481,9.63,73342.0,-3.97,-8.71,-8.89,0,*5F
1515719074.18,19482,9.63,73342.8,-3.97,-8.63,-8.85,0,*53
1515719075.44,19483,9.63,73338.5,-3.97,-8.51,-8.85,0,*53
1515719076.67,19484,9.63,73338.8,-3.97,-8.37,-8.85,0,*54
1515719077.87,19485,9.63,73336.3,-3.95,-8.21,-8.59,0,*51
1515719079.12,19486,9.63,73342.0,-3.97,-8.25,-8.51,0,*5C
1515719080.34,19487,9.63,73342.5,-3.95,-8.11,-8.33,0,*5C
1515719081.58,19488,9.63,73338.3,-3.97,-8.25,-8.37,0,*52
1515719082.81,19489,9.63,73338.3,-3.97,-8.25,-8.37,0,*53
1515719084.01,19490,9.63,73342.8,-3.95,-8.29,-8.33,0,*51
1515719085.24,19491,9.63,73338.0,-3.97,-8.45,-8.45,0,*59
1515719086.5,19492,9.63,73342.5,-3.97,-8.45,-8.51,0,*5F
1515719087.69,19493,9.63,73338.3,-3.99,-8.59,-8.75,0,*5B
1515719088.92,19494,9.63,73338.3,-3.99,-8.51,-8.75,0,*54
1515719090.14,19495,9.63,73336.8,-3.97,-8.33,-8.71,0,*5B
1515719091.36,19496,9.63,73336.0,-3.97,-8.33,-8.71,0,*58
1515719092.58,19497,9.63,73336.8,-3.97,-8.33,-8.63,0,*5A
1515719093.8,19498,9.63,73336.5,-3.97,-8.33,-8.63,0,*55
1515719095.03,19499,9.63,73338.3,-3.97,-8.45,-8.71,0,*56
1515719096.27,19500,9.63,73338.5,-3.97,-8.63,-8.85,0,*58
1515719097.5,19501,9.63,73340.0,-3.97,-8.71,-8.97,0,*59
1515719098.74,19502,9.63,73338.0,-3.97,-8.63,-9.01,0,*57
1515719100.0,19503,9.63,73338.0,-3.97,-8.51,-8.97,0,*59
1515719101.23,19504,9.63,73340.0,-3.99,-8.51,-8.89,0,*5F
1515719102.49,19505,9.63,73340.8,-3.97,-8.51,-8.89,0,*50
1515719103.72,19506,9.63,73336.8,-3.97,-8.59,-8.89,0,*5B
1515719104.92,19507,9.63,73336.8,-3.95,-8.45,-8.93,0,*5E
1515719106.18,19508,9.63,73338.0,-3.97,-8.51,-8.97,0,*52
1515719107.41,19509,9.63,73338.5,-3.97,-8.45,-8.97,0,*56
1515719108.65,19510,9.63,73338.0,-3.97,-8.59,-9.01,0,*5D
1515719109.86,19511,9.63,73340.8,-3.99,-8.63,-9.01,0,*5B
1515719111.06,19512,9.63,73338.3,-3.95,-8.55,-9.01,0,*51
1515719112.3,19513,9.63,73340.3,-3.97,-8.59,-9.01,0,*5E
1515719113.56,19514,9.63,73338.3,-3.97,-8.51,-9.05,0,*55
1515719114.81,19515,9.63,73340.0,-3.97,-8.51,-9.05,0,*54
1515719116.07,19516,9.63,73338.0,-3.99,-8.51,-9.15,0,*58
1515719117.32,19517,9.63,73338.3,-3.99,-8.51,-9.15,0,*59
1515719118.53,19518,9.69,73340.8,-3.99,-8.45,-9.05,0,*52
1515719119.76,19519,9.63,73340.3,-3.99,-8.45,-9.15,0,*52
1515719120.96,19520,9.63,73336.8,-3.99,-8.45,-9.05,0,*59
1515719122.17,19521,9.63,73338.3,-3.99,-8.37,-9.05,0,*5D
1515719123.42,19522,9.63,73336.5,-3.99,-8.51,-9.15,0,*5F
1515719124.65,19523,9.63,73338.0,-3.99,-8.51,-9.19,0,*52
1515719125.88,19524,9.63,73342.3,-3.99,-8.51,-9.19,0,*55
1515719127.13,19525,9.63,73338.3,-4.01,-8.51,-9.19,0,*52
1515719128.39,19526,9.63,73336.3,-4.01,-8.51,-9.19,0,*51
1515719129.62,19527,9.63,73338.0,-3.99,-8.45,-9.15,0,*5F
1515719130.84,19528,9.63,73338.5,-3.99,-8.45,-9.15,0,*50
1515719132.05,19529,9.63,73336.0,-3.99,-8.37,-9.19,0,*58
1515719133.28,19530,9.63,73342.3,-3.99,-8.37,-9.15,0,*5C
1515719134.48,19531,9.63,73340.0,-3.99,-8.37,-9.19,0,*51
1515719135.68,19532,9.63,73336.8,-3.99,-8.37,-9.19,0,*52
1515719136.91,19533,9.63,73338.3,-3.99,-8.25,-9.15,0,*5C
1515719138.14,19534,9.63,73336.8,-3.99,-8.25,-9.15,0,*5B
1515719139.37,19535,9.63,73336.3,-4.01,-8.37,-9.23,0,*5A
1515719140.56,19536,9.63,73342.3,-3.99,-8.33,-9.27,0,*5F
1515719141.77,19537,9.63,73342.3,-3.99,-8.25,-9.19,0,*54
1515719142.97,19538,9.63,73338.8,-3.99,-8.21,-9.19,0,*5F
1515719144.19,19539,9.63,73338.5,-4.01,-8.25,-9.23,0,*55
1515719145.42,19540,9.63,73340.5,-3.99,-8.21,-9.15,0,*5C
1515719146.62,19541,9.69,73340.8,-3.99,-8.17,-9.19,0,*54
1515719147.84,19542,9.63,73340.8,-4.01,-8.21,-9.19,0,*54
1515719149.08,19543,9.63,73336.8,-3.99,-8.07,-9.05,0,*5A
1515719150.33,19544,9.63,73340.8,-3.99,-8.07,-9.15,0,*5C
1515719151.58,19545,9.63,73338.3,-4.01,-8.11,-9.23,0,*59
1515719152.84,19546,9.63,73340.8,-4.01,-8.07,-9.19,0,*54
1515719154.08,19547,9.63,73342.0,-3.99,-8.03,-9.15,0,*5B
1515719155.31,19548,9.63,73336.8,-3.99,-7.95,-9.05,0,*55
1515719156.54,19549,9.63,73338.5,-3.99,-7.95,-9.05,0,*54
1515719157.79,19550,9.63,73338.5,-3.99,-7.95,-9.15,0,*5D
1515719159.04,19551,9.63,73338.3,-3.99,-7.91,-9.15,0,*58
1515719160.31,19552,9.63,73340.5,-4.01,-7.99,-9.15,0,*55
1515719161.56,19553,9.63,73342.8,-3.99,-7.91,-9.15,0,*5A
1515719162.81,19554,9.63,73336.3,-3.99,-7.91,-9.15,0,*5D
1515719164.06,19555,9.63,73342.0,-4.01,-7.87,-9.11,0,*59
1515719165.29,19556,9.63,73336.8,-3.99,-7.77,-9.05,0,*56
1515719166.52,19557,9.63,73340.0,-3.99,-7.77,-9.05,0,*57
1515719167.74,19558,9.63,73338.0,-3.99,-7.77,-9.05,0,*58
1515719168.97,19559,9.63,73340.0,-3.99,-7.77,-8.97,0,*53
1515719170.2,19560,9.63,73338.5,-4.01,-7.83,-9.05,0,*5E
1515719171.43,19561,9.63,73336.0,-3.99,-7.77,-9.01,0,*56
1515719172.69,19562,9.63,73336.5,-4.01,-7.73,-9.01,0,*57
1515719173.94,19563,9.63,73342.3,-4.01,-7.69,-9.01,0,*5D
1515719175.19,19564,9.63,73342.0,-4.01,-7.69,-8.93,0,*50
1515719176.42,19565,9.69,73342.8,-3.99,-7.69,-8.89,0,*5C
1515719177.65,19566,9.63,73342.5,-3.99,-7.65,-8.97,0,*5C
1515719178.89,19567,9.63,73338.5,-3.99,-7.57,-8.89,0,*53
1515719180.12,19568,9.63,73340.5,-3.99,-7.61,-8.85,0,*55
1515719181.36,19569,9.63,73340.3,-3.99,-7.57,-8.85,0,*51
1515719182.63,19570,9.63,73340.3,-4.01,-7.61,-8.81,0,*5E
1515719183.86,19571,9.63,73340.0,-3.99,-7.61,-8.71,0,*56
1515719185.09,19572,9.63,73340.3,-3.99,-7.57,-8.75,0,*54
1515719186.33,19573,9.63,73336.8,-4.01,-7.61,-8.75,0,*56
1515719187.58,19574,9.63,73340.8,-4.01,-7.61,-8.75,0,*51
1515719188.84,19575,9.63,73342.0,-4.01,-7.57,-8.75,0,*55
1515719190.08,19576,9.63,73340.0,-4.01,-7.61,-8.63,0,*54
1515719191.31,19577,9.63,73340.3,-3.99,-7.57,-8.63,0,*56
1515719192.56,19578,9.63,73340.0,-4.01,-7.61,-8.63,0,*5A
1515719193.81,19579,9.63,73340.3,-4.01,-7.61,-8.63,0,*5B
1515719195.05,19580,9.63,73340.3,-4.01,-7.61,-8.67,0,*59
1515719196.31,19581,9.63,73340.3,-3.99,-7.57,-8.51,0,*5E
1515719197.57,19582,9.63,73338.5,-3.99,-7.57,-8.51,0,*5D
1515719198.85,19583,9.63,73338.5,-4.01,-7.57,-8.51,0,*5A
1515719200.08,19584,9.63,73338.0,-3.99,-7.57,-8.33,0,*5F
1515719201.28,19585,9.63,73338.0,-3.99,-7.53,-8.37,0,*5E
1515719202.54,19586,9.63,73338.3,-4.01,-7.57,-8.37,0,*5F
1515719203.8,19587,9.63,73338.0,-4.01,-7.61,-8.41,0,*5A
1515719204.99,19588,9.63,73338.5,-3.99,-7.53,-8.33,0,*57
1515719206.24,19589,9.63,73342.3,-4.01,-7.61,-8.25,0,*56
1515719207.5,19590,9.63,73342.3,-4.01,-7.61,-8.25,0,*5E
1515719208.73,19591,9.63,73340.8,-3.99,-7.57,-8.21,0,*58
1515719209.99,19592,9.63,73340.8,-4.01,-7.57,-8.21,0,*5D
1515719211.24,19593,9.63,73336.0,-4.01,-7.61,-8.21,0,*59
1515719212.44,19594,9.63,73342.5,-3.99,-7.53,-8.17,0,*5C
1515719213.7,19595,9.63,73336.3,-4.01,-7.57,-8.21,0,*5A
1515719214.97,19596,9.63,73342.0,-4.01,-7.69,-8.11,0,*57
1515719216.21,19597,9.63,73342.0,-3.99,-7.57,-8.17,0,*5B
1515719217.44,19598,9.63,73340.0,-3.99,-7.53,-8.07,0,*51
1515719218.72,19599,9.63,73336.0,-4.01,-7.61,-8.07,0,*57
1515719220.0,19600,9.63,73342.8,-4.01,-7.69,-7.99,0,*54
1515719221.28,19601,9.63,73340.5,-4.01,-7.73,-8.03,0,*52
1515719222.56,19602,9.69,73342.0,-4.01,-7.61,-8.11,0,*51
1515719223.83,19603,9.69,73342.3,-4.01,-7.69,-8.11,0,*58
1515719225.08,19604,9.63,73340.3,-3.99,-7.65,-7.95,0,*56
1515719226.33,19605,9.63,73342.0,-3.99,-7.65,-7.95,0,*57
1515719227.61,19606,9.63,73340.3,-4.01,-7.69,-7.99,0,*52
1515719228.86,19607,9.69,73340.3,-3.99,-7.65,-7.95,0,*55
1515719230.12,19608,9.63,73338.3,-3.99,-7.57,-7.95,0,*5B
1515719231.37,19609,9.63,73342.5,-3.99,-7.65,-7.91,0,*5F
1515719232.64,19610,9.69,73340.0,-4.01,-7.69,-7.95,0,*59
1515719233.87,19611,9.63,73338.3,-3.99,-7.69,-7.87,0,*5D
1515719235.11,19612,9.69,73340.0,-3.99,-7.65,-7.83,0,*56
1515719236.34,19613,9.63,73340.0,-3.99,-7.69,-7.83,0,*5B
1515719237.57,19614,9.63,73338.8,-3.99,-7.65,-7.83,0,*50
1515719238.8,19615,9.63,73340.8,-3.99,-7.65,-7.83,0,*51
1515719240.06,19616,9.63,73338.5,-4.01,-7.69,-7.83,0,*58
1515719241.31,19617,9.63,73340.3,-4.01,-7.69,-7.87,0,*5D
1515719242.56,19618,9.63,73338.3,-4.01,-7.69,-7.87,0,*52
1515719243.82,19619,9.69,73342.5,-3.99,-7.65,-7.77,0,*56
1515719245.08,19620,9.63,73338.3,-4.01,-7.73,-7.83,0,*56
1515719246.37,19621,9.63,73338.8,-4.01,-7.73,-7.77,0,*5C
1515719247.62,19622,9.63,73340.8,-3.99,-7.77,-7.77,0,*5D
1515719248.88,19623,9.63,73336.3,-4.01,-7.83,-7.73,0,*55
1515719250.16,19624,9.69,73342.0,-4.01,-7.73,-7.73,0,*5D
1515719251.39,19625,9.63,73338.3,-3.99,-7.83,-7.69,0,*5E
1515719252.67,19626,9.63,73338.5,-4.01,-7.73,-7.69,0,*54
1515719253.92,19627,9.69,73340.5,-4.01,-7.83,-7.69,0,*5A
1515719255.17,19628,9.63,73338.8,-4.01,-7.87,-7.61,0,*59
1515719256.43,19629,9.69,73340.3,-4.01,-7.83,-7.65,0,*58
1515719257.68,19630,9.63,73340.0,-4.01,-7.83,-7.69,0,*5C
1515719258.93,19631,9.63,73338.0,-3.99,-7.69,-7.57,0,*52
1515719260.22,19632,9.69,73340.0,-4.01,-7.73,-7.61,0,*59
1515719261.45,19633,9.63,73338.5,-3.99,-7.83,-7.43,0,*51
1515719262.71,19634,9.69,73342.0,-3.99,-7.77,-7.57,0,*58
1515719263.96,19635,9.63,73336.0,-4.01,-7.83,-7.57,0,*54
1515719265.19,19636,9.63,73338.3,-3.99,-7.83,-7.57,0,*51
1515719266.42,19637,9.63,73338.8,-3.99,-7.83,-7.57,0,*50
1515719267.68,19638,9.69,73342.3,-4.01,-7.87,-7.57,0,*5D
1515719268.88,19639,9.63,73340.3,-3.99,-7.83,-7.53,0,*5A
1515719270.1,19640,9.63,73340.8,-3.99,-7.77,-7.53,0,*5F
1515719271.35,19641,9.63,73342.8,-4.01,-7.83,-7.57,0,*57
1515719272.61,19642,9.69,73340.8,-3.99,-7.77,-7.43,0,*5C
1515719273.9,19643,9.63,73336.3,-4.01,-7.73,-7.43,0,*5F
1515719275.18,19644,9.63,73338.5,-4.01,-7.73,-7.31,0,*5D
1515719276.47,19645,9.63,73342.0,-4.01,-7.73,-7.43,0,*59
1515719277.74,19646,9.63,73338.8,-4.01,-7.69,-7.31,0,*54
1515719278.95,19647,9.69,73340.0,-3.99,-7.83,-7.23,0,*54
1515719280.18,19648,9.63,73340.8,-4.01,-7.83,-7.19,0,*54
1515719281.43,19649,9.63,73340.8,-3.99,-7.69,-7.39,0,*55
1515719282.67,19650,9.63,73336.5,-3.99,-7.65,-7.23,0,*5A
1515719283.93,19651,9.63,73340.0,-3.97,-7.69,-7.23,0,*59
1515719285.16,19652,9.69,73342.5,-3.99,-7.77,-7.23,0,*5B
1515719286.41,19653,9.69,73340.8,-4.01,-7.87,-7.31,0,*50
1515719287.66,19654,9.63,73340.8,-4.01,-7.87,-7.39,0,*5F
1515719288.91,19655,9.63,73340.8,-4.01,-7.95,-7.49,0,*5A
1515719290.16,19656,9.63,73340.0,-4.01,-7.99,-7.49,0,*55
1515719291.42,19657,9.69,73340.5,-3.99,-7.99,-7.57,0,*5D
1515719292.69,19658,9.63,73340.8,-4.01,-8.11,-7.69,0,*56
1515719293.95,19659,9.69,73340.5,-3.99,-8.03,-7.65,0,*5E
1515719295.22,19660,9.69,73342.0,-4.01,-8.11,-7.69,0,*5D
1515719296.51,19661,9.69,73340.0,-4.01,-8.11,-7.61,0,*54
1515719297.77,19662,9.69,73342.3,-3.99,-8.07,-7.57,0,*53
1515719299.02,19663,9.69,73342.8,-3.99,-8.07,-7.65,0,*53
1515719300.3,19664,9.69,73340.3,-4.01,-8.11,-7.69,0,*59
1515719301.56,19665,9.69,73342.8,-3.99,-8.07,-7.57,0,*54
1515719302.82,19666,9.69,73342.8,-3.99,-8.07,-7.65,0,*56
1515719304.08,19667,9.69,73342.0,-3.99,-8.07,-7.65,0,*57
1515719305.33,19668,9.69,73340.5,-4.01,-8.25,-7.73,0,*59
1515719306.58,19669,9.63,73340.8,-4.01,-8.21,-7.69,0,*57
1515719307.87,19670,9.69,73340.0,-4.01,-8.07,-7.61,0,*53
1515719309.12,19671,9.63,73338.3,-3.99,-8.03,-7.57,0,*55
1515719310.38,19672,9.63,73336.5,-3.99,-8.07,-7.57,0,*52
1515719311.66,19673,9.69,73340.0,-4.01,-8.11,-7.69,0,*5F
1515719312.88,19674,9.69,73342.0,-3.99,-8.17,-7.69,0,*58
1515719314.11,19675,9.63,73340.0,-3.99,-8.17,-7.69,0,*59
1515719315.34,19676,9.69,73342.3,-3.99,-8.17,-7.69,0,*5A
1515719316.62,19677,9.69,73342.0,-4.01,-8.11,-7.69,0,*5B
1515719317.84,19678,9.69,73340.3,-3.99,-7.95,-7.53,0,*58
1515719319.07,19679,9.69,73340.5,-4.01,-7.87,-7.49,0,*57